EWG89W LOWL-LOWS

Flight info

Callsign EWG89W
Flight time 0h 18m
Altitude 12000
Route LIDSI DCT MATIG MATIG2R
Aircraft A320/M-SDE3FGHIRWY/LB1

Departure

Time 2026-04-22 18:04
Airport Linz-Hörsching Airport (LOWL)

Arrival

Time 2026-04-22 18:22
Airport Salzburg Airport (LOWS)
Time Latitude Longitude Altitude Speed Heading
2026-04-22 17:50 48.23849 14.19281 974 ft 0 kts 271°
2026-04-22 17:58 48.23849 14.19272 974 ft 5 kts 271°
2026-04-22 17:59 48.23819 14.19214 976 ft 10 kts 178°
2026-04-22 17:59 48.23759 14.19282 976 ft 16 kts 83°
2026-04-22 17:59 48.23767 14.19503 979 ft 22 kts 87°
2026-04-22 17:59 48.23687 14.19637 977 ft 19 kts 156°
2026-04-22 18:00 48.23601 14.19688 974 ft 21 kts 158°
2026-04-22 18:00 48.23522 14.19735 973 ft 0 kts 158°
2026-04-22 18:01 48.23506 14.19745 985 ft 11 kts 159°
2026-04-22 18:01 48.23377 14.19836 976 ft 28 kts 130°
2026-04-22 18:01 48.23373 14.20165 977 ft 36 kts 86°
2026-04-22 18:02 48.23386 14.20541 975 ft 31 kts 86°
2026-04-22 18:02 48.23404 14.20710 978 ft 6 kts 138°
2026-04-22 18:02 48.23391 14.20678 976 ft 4 kts 268°
2026-04-22 18:02 48.23390 14.20677 976 ft 0 kts 268°
2026-04-22 18:03 48.23385 14.20507 975 ft 55 kts 266°
2026-04-22 18:03 48.23346 14.19456 979 ft 142 kts 266°
2026-04-22 18:03 48.23284 14.17764 1478 ft 167 kts 267°
2026-04-22 18:04 48.23223 14.16009 2460 ft 171 kts 271°
2026-04-22 18:04 48.23161 14.14162 2953 ft 187 kts 271°
2026-04-22 18:04 48.23097 14.12094 3307 ft 210 kts 270°
2026-04-22 18:04 48.22860 14.09819 3696 ft 234 kts 259°
2026-04-22 18:05 48.22435 14.07333 4167 ft 258 kts 257°
2026-04-22 18:05 48.21954 14.04722 4991 ft 267 kts 256°
2026-04-22 18:05 48.21448 14.02024 5986 ft 270 kts 256°
2026-04-22 18:05 48.20936 13.99303 6985 ft 273 kts 256°
2026-04-22 18:06 48.20421 13.96547 7899 ft 277 kts 256°
2026-04-22 18:06 48.19898 13.93733 8791 ft 282 kts 257°
2026-04-22 18:06 48.19369 13.90873 9696 ft 288 kts 257°
2026-04-22 18:06 48.18832 13.87951 10479 ft 298 kts 257°
2026-04-22 18:07 48.18265 13.84839 10794 ft 322 kts 257°
2026-04-22 18:07 48.17663 13.81533 11087 ft 344 kts 257°
2026-04-22 18:07 48.17014 13.78015 11656 ft 355 kts 257°
2026-04-22 18:07 48.16345 13.74411 12126 ft 362 kts 257°
2026-04-22 18:08 48.15664 13.70760 12243 ft 371 kts 257°
2026-04-22 18:08 48.14949 13.66920 12261 ft 392 kts 257°
2026-04-22 18:08 48.14210 13.62964 12261 ft 393 kts 257°
2026-04-22 18:08 48.13487 13.59135 12254 ft 369 kts 257°
2026-04-22 18:09 48.12819 13.55616 12260 ft 335 kts 257°
2026-04-22 18:09 48.12209 13.52407 12261 ft 307 kts 257°
2026-04-22 18:09 48.11653 13.49460 12234 ft 284 kts 257°
2026-04-22 18:09 48.11129 13.46672 11882 ft 275 kts 257°
2026-04-22 18:10 48.10626 13.43981 11432 ft 270 kts 257°
2026-04-22 18:10 48.10126 13.41295 10953 ft 267 kts 257°
2026-04-22 18:10 48.09629 13.38640 10499 ft 263 kts 257°
2026-04-22 18:10 48.09138 13.36029 10008 ft 259 kts 257°
2026-04-22 18:11 48.08650 13.33446 9471 ft 257 kts 257°
2026-04-22 18:11 48.08167 13.30890 8942 ft 254 kts 256°
2026-04-22 18:11 48.07687 13.28361 8405 ft 252 kts 256°
2026-04-22 18:11 48.07210 13.25851 7900 ft 250 kts 256°
2026-04-22 18:12 48.06734 13.23353 7495 ft 249 kts 256°
2026-04-22 18:12 48.06269 13.20907 7196 ft 247 kts 256°
2026-04-22 18:12 48.05948 13.19208 6690 ft 258 kts 256°
2026-04-22 18:12 48.05278 13.15680 5803 ft 270 kts 256°
2026-04-22 18:13 48.04759 13.12986 5382 ft 269 kts 256°
2026-04-22 18:13 48.04242 13.10312 5050 ft 266 kts 256°
2026-04-22 18:13 48.03729 13.07656 5006 ft 267 kts 256°
2026-04-22 18:13 48.03214 13.04986 5008 ft 267 kts 254°
2026-04-22 18:14 48.02371 13.02515 5012 ft 270 kts 232°
2026-04-22 18:14 48.00990 13.00685 5007 ft 272 kts 211°
2026-04-22 18:14 47.99215 12.99718 5012 ft 273 kts 188°
2026-04-22 18:14 47.97334 12.99790 5010 ft 268 kts 166°
2026-04-22 18:15 47.95686 13.00815 5007 ft 248 kts 145°
2026-04-22 18:15 47.94305 13.02196 5008 ft 231 kts 153°
2026-04-22 18:15 47.92809 13.02967 5007 ft 226 kts 168°
2026-04-22 18:15 47.91310 13.03373 5012 ft 213 kts 169°
2026-04-22 18:16 47.89890 13.03784 5019 ft 200 kts 168°
2026-04-22 18:16 47.88613 13.04166 5015 ft 177 kts 168°
2026-04-22 18:16 47.87476 13.04511 5024 ft 162 kts 168°
2026-04-22 18:16 47.86390 13.04840 4751 ft 155 kts 168°
2026-04-22 18:17 47.85352 13.05156 4535 ft 150 kts 168°
2026-04-22 18:17 47.84337 13.05464 4333 ft 148 kts 168°
2026-04-22 18:17 47.83334 13.05768 4130 ft 147 kts 169°
2026-04-22 18:17 47.82332 13.06071 3938 ft 146 kts 168°
2026-04-22 18:18 47.81337 13.06375 3739 ft 146 kts 169°
2026-04-22 18:18 47.80343 13.06677 3544 ft 146 kts 169°
2026-04-22 18:18 47.79352 13.06978 3332 ft 145 kts 169°
2026-04-22 18:18 47.78376 13.07278 3131 ft 145 kts 169°
2026-04-22 18:19 47.77391 13.07578 2922 ft 144 kts 170°
2026-04-22 18:19 47.76408 13.07528 2717 ft 142 kts 201°
2026-04-22 18:19 47.75605 13.06738 2513 ft 137 kts 232°
2026-04-22 18:19 47.75179 13.05492 2363 ft 136 kts 260°
2026-04-22 18:20 47.75214 13.04114 2205 ft 135 kts 287°
2026-04-22 18:20 47.75687 13.02928 2008 ft 136 kts 314°
2026-04-22 18:20 47.76484 13.02176 1842 ft 137 kts 335°
2026-04-22 18:20 47.77365 13.01636 1642 ft 136 kts 327°
2026-04-22 18:21 47.78233 13.01101 1498 ft 138 kts 331°
2026-04-22 18:21 47.79096 13.00547 1417 ft 127 kts 336°
2026-04-22 18:21 47.79720 13.00148 1422 ft 77 kts 337°
2026-04-22 18:21 47.80161 12.99874 1422 ft 58 kts 335°
2026-04-22 18:22 47.80285 12.99735 1422 ft 7 kts 256°
2026-04-22 18:22 47.80266 12.99662 1424 ft 13 kts 243°
2026-04-22 18:22 47.80173 12.99581 1423 ft 10 kts 176°
2026-04-22 18:22 47.80090 12.99648 1423 ft 20 kts 152°
2026-04-22 18:23 47.79928 12.99753 1422 ft 31 kts 155°
2026-04-22 18:23 47.79711 12.99890 1422 ft 35 kts 156°
2026-04-22 18:23 47.79491 13.00029 1423 ft 28 kts 157°
2026-04-22 18:24 47.79299 12.99967 1422 ft 4 kts 139°
2026-04-22 18:24 47.79291 13.00010 1422 ft 6 kts 102°
2026-04-22 18:24 47.79285 13.00058 1422 ft 0 kts 103°